Hourly Weather Bolshie Peksely

Today, 4 August, Wednesday

Time Temperature Precipitation Wind Pressure Humidity
00:00 +19°C° 0 mm 2 mps 747 mmHg 74%
01:00 +18°C° 0 mm 2 mps 747 mmHg 75%
02:00 +18°C° 0 mm 2 mps 747 mmHg 76%
03:00 +17°C° 0 mm 2 mps 747 mmHg 78%
04:00 +17°C° 0 mm 2 mps 747 mmHg 78%
05:00 +17°C° 0 mm 2 mps 747 mmHg 78%
06:00 +17°C° 0 mm 2 mps 747 mmHg 78%
07:00 +19°C° 0 mm 2 mps 748 mmHg 69%
08:00 +20°C° 0 mm 2 mps 748 mmHg 59%
09:00 +22°C° 0 mm 3 mps 748 mmHg 49%
10:00 +24°C° 0 mm 3 mps 749 mmHg 46%
11:00 +25°C° 0 mm 3 mps 749 mmHg 42%
12:00 +26°C° 0 mm 3 mps 749 mmHg 39%
13:00 +25°C° 0 mm 3 mps 749 mmHg 41%
14:00 +25°C° 0 mm 3 mps 749 mmHg 44%
15:00 +24°C° 0 mm 3 mps 749 mmHg 46%
16:00 +24°C° 0 mm 3 mps 749 mmHg 48%
17:00 +23°C° 0 mm 2 mps 749 mmHg 49%
18:00 +23°C° 0 mm 2 mps 749 mmHg 50%
19:00 +21°C° 0 mm 2 mps 749 mmHg 54%
20:00 +20°C° 0 mm 1 mps 750 mmHg 58%
21:00 +19°C° 0 mm 1 mps 750 mmHg 61%
22:00 +18°C° 0 mm 1 mps 750 mmHg 63%
23:00 +18°C° 0 mm 1 mps 750 mmHg 64%

Tomorrow, 5 August, Thursday

Time Temperature Precipitation Wind Pressure Humidity
00:00 +16°C° 0 mm 1 mps 750 mmHg 66%
01:00 +16°C° 0 mm 1 mps 750 mmHg 68%
02:00 +15°C° 0 mm 1 mps 750 mmHg 69%
03:00 +15°C° 0 mm 1 mps 750 mmHg 71%
04:00 +14°C° 0 mm 0 mps 751 mmHg 71%
05:00 +15°C° 0 mm 0 mps 751 mmHg 71%
06:00 +15°C° 0 mm 0 mps 751 mmHg 71%
07:00 +17°C° 0 mm 0 mps 751 mmHg 63%
08:00 +19°C° 0 mm 0 mps 751 mmHg 55%
09:00 +22°C° 0 mm 0 mps 751 mmHg 47%
10:00 +23°C° 0 mm 0 mps 751 mmHg 44%
11:00 +26°C° 0 mm 1 mps 751 mmHg 40%
12:00 +27°C° 0 mm 1 mps 751 mmHg 36%
13:00 +27°C° 0 mm 1 mps 751 mmHg 35%
14:00 +27°C° 0 mm 1 mps 750 mmHg 34%
15:00 +28°C° 0 mm 1 mps 750 mmHg 33%
16:00 +27°C° 0 mm 1 mps 750 mmHg 37%
17:00 +27°C° 0 mm 1 mps 750 mmHg 40%
18:00 +26°C° 0 mm 1 mps 749 mmHg 44%
19:00 +25°C° 0 mm 2 mps 749 mmHg 45%
20:00 +24°C° 0 mm 2 mps 749 mmHg 46%
21:00 +21°C° 0 mm 2 mps 749 mmHg 48%
22:00 +21°C° 0 mm 2 mps 749 mmHg 49%
23:00 +21°C° 0 mm 3 mps 749 mmHg 50%

Day after tomorrow, 6 August, Friday

Time Temperature Precipitation Wind Pressure Humidity
00:00 +20°C° 0 mm 3 mps 749 mmHg 51%
01:00 +20°C° 0 mm 3 mps 749 mmHg 53%
02:00 +19°C° 0 mm 3 mps 748 mmHg 55%
03:00 +19°C° 0 mm 3 mps 748 mmHg 57%
04:00 +19°C° 0 mm 3 mps 748 mmHg 56%
05:00 +20°C° 0 mm 4 mps 748 mmHg 56%
06:00 +20°C° 0 mm 4 mps 748 mmHg 55%
07:00 +21°C° 0 mm 5 mps 748 mmHg 52%
08:00 +23°C° 0 mm 5 mps 748 mmHg 48%
09:00 +25°C° 0 mm 5 mps 748 mmHg 45%
10:00 +25°C° 0 mm 5 mps 748 mmHg 46%
11:00 +23°C° 0 mm 4 mps 748 mmHg 48%
12:00 +24°C° 0 mm 3 mps 748 mmHg 50%
13:00 +26°C° 0 mm 3 mps 748 mmHg 46%
14:00 +27°C° 0 mm 3 mps 747 mmHg 42%
15:00 +29°C° 0 mm 3 mps 747 mmHg 39%
16:00 +29°C° 0 mm 3 mps 747 mmHg 38%
17:00 +29°C° 0 mm 4 mps 746 mmHg 38%
18:00 +30°C° 0 mm 4 mps 746 mmHg 37%
19:00 +28°C° 0 mm 4 mps 746 mmHg 40%
20:00 +27°C° 0 mm 4 mps 746 mmHg 43%
21:00 +25°C° 0 mm 4 mps 746 mmHg 46%
22:00 +25°C° 0 mm 4 mps 746 mmHg 47%
23:00 +23°C° 0 mm 4 mps 746 mmHg 49%

7 August, Saturday

Time Temperature Precipitation Wind Pressure Humidity
00:00 +22°C° 0 mm 4 mps 746 mmHg 51%
01:00 +23°C° 0 mm 4 mps 746 mmHg 49%
02:00 +23°C° 0 mm 4 mps 746 mmHg 48%
03:00 +23°C° 0 mm 4 mps 746 mmHg 47%
04:00 +22°C° 0 mm 4 mps 746 mmHg 49%
05:00 +22°C° 0 mm 4 mps 746 mmHg 52%
06:00 +21°C° 0 mm 4 mps 746 mmHg 54%
07:00 +23°C° 0 mm 4 mps 746 mmHg 48%
08:00 +26°C° 0 mm 5 mps 747 mmHg 41%
09:00 +28°C° 0 mm 5 mps 747 mmHg 35%
10:00 +28°C° 0 mm 5 mps 747 mmHg 36%
11:00 +28°C° 0 mm 4 mps 747 mmHg 36%
12:00 +28°C° 0 mm 3 mps 747 mmHg 36%
13:00 +29°C° 0 mm 3 mps 747 mmHg 34%
14:00 +31°C° 0 mm 3 mps 747 mmHg 31%
15:00 +34°C° 0 mm 2 mps 747 mmHg 29%
16:00 +32°C° 0 mm 2 mps 747 mmHg 31%
17:00 +32°C° 0 mm 2 mps 747 mmHg 33%
18:00 +32°C° 0 mm 2 mps 747 mmHg 35%
19:00 +30°C° 0 mm 3 mps 747 mmHg 38%
20:00 +28°C° 0 mm 3 mps 747 mmHg 41%
21:00 +26°C° 0 mm 4 mps 747 mmHg 43%
22:00 +26°C° 0 mm 4 mps 747 mmHg 44%
23:00 +25°C° 0 mm 3 mps 747 mmHg 44%

8 August, Sunday

Time Temperature Precipitation Wind Pressure Humidity
00:00 +24°C° 0 mm 3 mps 748 mmHg 45%
01:00 +22°C° 0 mm 3 mps 748 mmHg 46%
02:00 +21°C° 0 mm 3 mps 748 mmHg 47%
03:00 +20°C° 0 mm 3 mps 748 mmHg 49%
04:00 +20°C° 0 mm 3 mps 748 mmHg 48%
05:00 +20°C° 0 mm 3 mps 748 mmHg 48%
06:00 +20°C° 0 mm 3 mps 748 mmHg 48%
07:00 +24°C° 0 mm 3 mps 748 mmHg 43%
08:00 +26°C° 0 mm 3 mps 748 mmHg 39%
09:00 +28°C° 0 mm 3 mps 748 mmHg 34%
10:00 +30°C° 0 mm 4 mps 748 mmHg 31%
11:00 +32°C° 0 mm 4 mps 748 mmHg 27%
12:00 +34°C° 0 mm 4 mps 748 mmHg 24%
13:00 +34°C° 0 mm 4 mps 748 mmHg 25%
14:00 +34°C° 0 mm 4 mps 748 mmHg 27%
15:00 +34°C° 0 mm 4 mps 748 mmHg 28%
16:00 +31°C° 0 mm 3 mps 748 mmHg 33%
17:00 +29°C° 0 mm 2 mps 748 mmHg 39%
18:00 +27°C° 0 mm 1 mps 748 mmHg 44%
19:00 +27°C° 0 mm 1 mps 748 mmHg 44%
20:00 +26°C° 0 mm 1 mps 749 mmHg 43%
21:00 +26°C° 0 mm 1 mps 749 mmHg 43%
22:00 +26°C° 0 mm 1 mps 749 mmHg 43%
23:00 +26°C° 0 mm 1 mps 749 mmHg 43%

9 August, Monday

Time Temperature Precipitation Wind Pressure Humidity
00:00 +25°C° 0 mm 1 mps 749 mmHg 43%
01:00 +25°C° 0 mm 1 mps 749 mmHg 44%
02:00 +25°C° 0 mm 1 mps 749 mmHg 45%
03:00 +24°C° 0 mm 1 mps 749 mmHg 46%
04:00 +24°C° 0 mm 1 mps 749 mmHg 47%
05:00 +24°C° 0 mm 2 mps 749 mmHg 47%
06:00 +24°C° 0 mm 2 mps 749 mmHg 48%
07:00 +25°C° 0 mm 3 mps 749 mmHg 47%
08:00 +26°C° 0 mm 3 mps 749 mmHg 45%
09:00 +27°C° 0 mm 4 mps 749 mmHg 44%
10:00 +29°C° 0 mm 4 mps 749 mmHg 39%
11:00 +32°C° 0 mm 4 mps 749 mmHg 35%
12:00 +34°C° 0 mm 4 mps 749 mmHg 30%
13:00 +34°C° 0 mm 4 mps 749 mmHg 30%
14:00 +34°C° 0 mm 5 mps 749 mmHg 30%
15:00 +34°C° 0 mm 5 mps 749 mmHg 30%
16:00 +33°C° 0 mm 5 mps 749 mmHg 33%
17:00 +32°C° 0 mm 5 mps 749 mmHg 37%
18:00 +30°C° 0 mm 5 mps 749 mmHg 40%
19:00 +28°C° 0 mm 5 mps 749 mmHg 46%
20:00 +26°C° 0 mm 4 mps 749 mmHg 52%
21:00 +23°C° 0 mm 4 mps 749 mmHg 58%
22:00 +22°C° 0 mm 4 mps 750 mmHg 60%
23:00 +22°C° 0 mm 3 mps 750 mmHg 63%
Show more

We Need Your Consent

Meteoprog and our Service Providers may store and access personal data such as cookies, device identifiers or other similar technologies on your device and process such data to personalise content and ads, as well as provide social media features and to analyse the traffic.

  • Store and/or access information on your device

    Cookies, device identifiers or other information can be stored or accessed on your device for the purposes indicated above.

  • Personalised ads and content, ad and content measurement, audience insights, and products development

    Ads and content can be personalised based on a profile. More data can be added to better personalise ads and content. Ad and content performance can be measured. Insights about the audience who saw the ads and content can be derived. Such data can be used to develop or improve user’s experience, systems and software.

By clicking ‘I Agree’ you will allow the use of indicated cookies, device identifiers, web beacons or other similar technologies. Your settings can be changed in the browser on your device.

For certain purposes, legitimate interests may be relied on, rather than consent. You can read more about this in our Privacy and Cookie Policy.